Meteo Giornale » Osservazioni meteo Gran Bretagna » Benson

ore: 01:50 - Osservazioni Meteo Benson
Lat. 51° 37' N Lon. 1° 5' W Alt. 63 metri s.l.m.

sereno Europe/London

15 °C

Sereno

Temp. 24 Ore

13 °C

18 °C

Sud-Est

14.8 Km/h

Dew point 13 °C

Umidità 87 %

Visibilità  0 Km

Il sole sorge alle ore 07:38

Il sole tramonta alle ore 17:59

Data e Ora Cielo e Fenomeni T °C DP °C Um. % Pres. hPa Vis. km Vento km/h
Oggi h: 01:50 sereno Sereno 15 13 87 998 0 SE 14.8
Oggi h: 00:50 sereno Sereno 15 13 87 998 0 S/SE 20.3
Ieri h: 23:50 coperto Coperto 15 13 87 999 10 S/SE 20.3
Ieri h: 22:50 coperto Coperto 15 13 87 998 10 S/SE 22.2
Ieri h: 21:50 coperto Coperto 15 13 87 999 10 S/SE 16.7
Ieri h: 20:50 sereno Sereno 15 13 87 999 10 S/SE 24
Ieri h: 19:50 sereno Sereno 15 12 82 999 10 S/SE 24
Ieri h: 18:50 molto_nuvoloso Molto Nuvoloso 15 12 82 999 10 S 22.2
Ieri h: 17:50 nuvoloso Nuvoloso 16 12 77 999 10 S 24
Ieri h: 16:50 nuvoloso Nuvoloso 16 12 77 999 10 S 25.9
Ieri h: 15:50 nuvoloso Nuvoloso 17 12 72 999 10 S 27.8
Ieri h: 14:50 nuvoloso Nuvoloso 18 13 72 999 10 S 33.3
Ieri h: 13:50 molto_nuvoloso Molto Nuvoloso 16 12 77 1000 10 S 27.8
Ieri h: 12:50 molto_nuvoloso Molto Nuvoloso 17 12 72 1000 10 S 27.8
Ieri h: 11:50 molto_nuvoloso Molto Nuvoloso 16 13 82 1000 10 S 25.9
Ieri h: 10:50 molto_nuvoloso Molto Nuvoloso 16 14 87 1000 10 S 24
Ieri h: 10:37 nuvoloso Nuvoloso 15 14 93 1000 10 S 27.8
Ieri h: 09:50 molto_nuvoloso Molto Nuvoloso 15 14 93 1000 10 S 22.2
Ieri h: 08:50 coperto Coperto 13 13 100 1000 10 S/SE 20.3
Ieri h: 08:34 coperto Coperto 13 13 100 1000 10 S/SE 18.5
Ieri h: 08:07 coperto_pioggia Pioggia 13 13 100 1000 3 S/SE 18.5
Ieri h: 07:50 coperto Coperto 13 13 100 999 10 S/SE 20.3
Ieri h: 06:50 sereno Sereno 13 12 93 1000 0 S/SE 24
Ieri h: 05:50 sereno Sereno 13 12 93 1000 0 S/SE 27.8
Ieri h: 04:50 sereno Sereno 13 11 87 1000 0 S/SE 22.2
Ieri h: 03:50 sereno Sereno 13 10 81 1000 0 SE 24